TimeMST,TemperatureF,Dew PointF,Humidity,Sea Level PressureIn,VisibilityMPH,Wind Direction,Wind SpeedMPH,Gust SpeedMPH,PrecipitationIn,Events,Conditions,WindDirDegrees,DateUTC
12:57 AM,21.9,18.0,85,30.24,10.0,Calm,Calm,-,N/A,,Clear,0,2013-01-31 07:57:00
1:57 AM,19.9,16.0,85,30.25,10.0,Calm,Calm,-,N/A,,Clear,0,2013-01-31 08:57:00
2:57 AM,19.0,15.1,85,30.26,10.0,Calm,Calm,-,N/A,,Clear,0,2013-01-31 09:57:00
3:57 AM,18.0,15.1,88,30.27,10.0,Calm,Calm,-,N/A,,Clear,0,2013-01-31 10:57:00
4:57 AM,17.1,14.0,88,30.27,10.0,Calm,Calm,-,N/A,,Clear,0,2013-01-31 11:57:00
5:57 AM,16.0,12.9,88,30.30,10.0,Calm,Calm,-,N/A,,Clear,0,2013-01-31 12:57:00
6:57 AM,16.0,12.0,84,30.31,10.0,Calm,Calm,-,N/A,,Clear,0,2013-01-31 13:57:00
7:57 AM,17.1,14.0,88,30.32,10.0,Calm,Calm,-,N/A,,Clear,0,2013-01-31 14:57:00
8:57 AM,26.1,21.0,81,30.30,10.0,Calm,Calm,-,N/A,,Clear,0,2013-01-31 15:57:00
9:57 AM,36.0,24.1,62,30.25,10.0,ENE,6.9,-,N/A,,Clear,60,2013-01-31 16:57:00
10:57 AM,39.0,21.9,50,30.25,10.0,ENE,11.5,21.9,N/A,,Clear,70,2013-01-31 17:57:00
11:57 AM,41.0,21.9,47,30.26,10.0,Variable,4.6,17.3,N/A,,Clear,0,2013-01-31 18:57:00
12:57 PM,42.1,21.9,45,30.27,10.0,ENE,9.2,-,N/A,,Clear,70,2013-01-31 19:57:00
1:57 PM,45.0,21.0,39,30.26,10.0,Variable,5.8,-,N/A,,Clear,0,2013-01-31 20:57:00
2:57 PM,46.0,19.0,34,30.25,10.0,Variable,4.6,-,N/A,,Clear,0,2013-01-31 21:57:00
3:57 PM,48.0,21.9,36,30.24,10.0,NE,6.9,-,N/A,,Clear,50,2013-01-31 22:57:00
4:57 PM,45.0,21.9,40,30.25,10.0,East,8.1,-,N/A,,Clear,90,2013-01-31 23:57:00
5:57 PM,39.0,24.1,55,30.27,10.0,ENE,4.6,-,N/A,,Clear,70,2013-02-01 00:57:00
6:57 PM,35.1,24.1,64,30.30,10.0,ENE,4.6,-,N/A,,Clear,60,2013-02-01 01:57:00
7:57 PM,28.0,21.9,78,30.33,10.0,Calm,Calm,-,N/A,,Clear,0,2013-02-01 02:57:00
8:57 PM,27.0,21.0,78,30.31,10.0,Calm,Calm,-,N/A,,Clear,0,2013-02-01 03:57:00
9:57 PM,25.0,21.9,88,30.28,10.0,Calm,Calm,-,N/A,,Clear,0,2013-02-01 04:57:00
10:57 PM,25.0,21.0,85,30.26,10.0,Calm,Calm,-,N/A,,Clear,0,2013-02-01 05:57:00
11:57 PM,23.0,19.9,88,30.26,10.0,Calm,Calm,-,N/A,,Clear,0,2013-02-01 06:57:00